ESCO2: Skeleton Creek at Enid, OK

Data processed at Thu Jan 04 2018 23:03


All information presented herein is the property of the government of the United States of America and may be revised or deleted at any time without prior notice.
Dissemination of this information without the expressed written consent of the Public Affairs Office, Tulsa District U.S. Army Corps of Engineers is strictly prohibited.
These data are gathered electronically and, as presented, have not undergone any form of quality control. These data are not guaranteed to be valid or correct.
Go to home page.
Go to station list.

Downstream station:


Previous Day
Next Day
Current Day
    
SHEF ID:       ESCO2     Skeleton Creek at Enid, OK
STATION TYPE:  

               PRECIP     STAGE  RIV-FLOW  WTR-TEMP   CONDUCT  BAT-LOAD
                   in        ft       cfs         F   umho/cm      volt
              Ccp-Rev   Ccp-Rev   Ccp-Rev   Ccp-Rev   Ccp-Rev   Ccp-Rev
(US/Central)
01/02 00:00      0.00      2.55         5     32.36      1665     12.73
01/02 01:00      0.00      2.54         5     32.13      1668     12.65
01/02 02:00      0.00      2.54         5     32.27      1671     12.65
01/02 03:00      0.00      2.57         6     32.18      1681     12.65
01/02 04:00      0.00      2.56         5     32.56      1680     12.65
01/02 05:00      0.00      2.56         5     33.46      1674     12.65
01/02 06:00      0.00      2.54         5     32.22      1685     12.57
01/02 07:00      0.00      2.53         4     32.02      1690     12.57
01/02 08:00      0.00      2.53         4     31.95      1695     12.57
01/02 09:00      0.00      2.53         4     32.07      1698     12.57
01/02 10:00      0.00      2.56         5     32.92      1696     12.65
01/02 11:00      0.00      2.56         5     32.99      1698     12.89
01/02 12:00      0.00      2.56         5     33.49      1696     13.37
01/02 13:00      0.00      2.58         6     33.71      1680     13.44
01/02 14:00      0.00      2.60         7     34.11      1655     13.53
01/02 15:00      0.00      2.59         6     33.42      1640     13.53
01/02 16:00      0.00      2.63         8     33.04      1636     13.44
01/02 17:00      0.00      2.61         7     32.95      1637     13.29
01/02 18:00      0.00      2.58         6     32.49      1641     13.05
01/02 19:00      0.00      2.58         6     32.59      1645     12.89
01/02 20:00      0.00      2.55         5     31.82      1656     12.81
01/02 21:00      0.00      2.55         5     31.82      1662     12.81
01/02 22:00      0.00      2.54         5     31.91      1676     12.73
01/02 23:00      0.00      2.56         5     31.87      1698     12.73